PEGASUS R/B

Satellite information

Favourite Embed

Satellite Type and Status

ROCKET BODYIN ORBIT

Key statistics

Satellite PEGASUS R/B at a glance.

Uptime

11166

Days in orbit

Revolutions

≈ 14.5

Per day

Orbit

LEO

Low Earth Orbit

Inclination

70.0

Latest

Satellite identification and parameters

Extended collection of information and parameters for PEGASUS R/B.

Object identification

Identified? True

Debris? False

Object name: PEGASUS R/B

International designator: 1995-017D

Object number (NORAD): 23548

Object ID (CCSDS): 23548

Country: UNITED STATES OF AMERICA (US)

Current information (Y/N): Y

RCS size: LARGE

Orbital parameters

Period: 99.114 minutes

Inclination: 69.9896 deg

SMA: 7094.439 km

Apoapsis: 721.311 km

Periapsis: 711.298 km

RAAN: 353.5848 deg

Eccentricy: 0.00070569

Argument of periapsis: 80.0856 deg

Mean anomaly: 92.2364 deg

Mean motion: 14.5286626 rev/day

Mean motion (dot): 0.00000563 rev/day2

B* drag term: 0.00015199957 1/REarth

Two-line elements (TLE)

Creation date: Oct. 27, 2025, 2:46 a.m.

Reference frame: TEME

Reference center: EARTH

Epoch: Oct. 26, 2025, 9:40 p.m. UTC

TLE line 0: 0 PEGASUS R/B

TLE line 1: 1 23548U 95017D 25299.90306413 .00000563 00000-0 15200-3 0 9992

TLE line 2: 2 23548 69.9896 353.5848 0007057 80.0856 92.2364 14.52866260616765

Live tracking on map

Real-time ground track for satellite PEGASUS R/B.

In-orbit conjunctions

A list of the most updated potential collisions computed for object PEGASUS R/B.

Target Orbit TCA Probability of collision Miss distance Type
CZ-4 DEB SSO 2025-07-02 00:21:14 0.0009873148 24.0 (m) DEBRIS
CZ-6A DEB LEO 2024-12-24 12:15:59 0.0003409584 746.0 (m) DEBRIS
COSMOS 1275 DEB LEO 2024-06-19 07:12:32 0.0001094725 561.0 (m) DEBRIS

Associated space launch

PEGASUS R/B was lifted into orbit during the mission ‘Pegasus Hybrid | Orbcomm F1 - F2 & OrbView-1’, on board a Pegasus Hybrid space rocket.

The launch took place on April 3, 1995, 1:48 p.m. from Vandenberg Space Force Base.

For more information about the launch, click the button.

Launch to space Pegasus Hybrid | Orbcomm F1 - F2 & OrbView-1
Pegasus Hybrid | Orbcomm F1 - F2 & OrbView-1

Agency: N/A

Status: Launch Successful

Launch date: April 3, 1995, 1:48 p.m. UTC

Rocket: Pegasus Hybrid

Launch pad: Vandenberg Space Force Base

Location: Air launch to orbit

...

Latest news about this satellite

There are no fresh news available about this satellite. Check back as we update our databases every day.


Newsletter sign-up

Weekly statistics, charts and insights to help you stay on top of the space industry.